| time (UTC) | temp C | wind direction | speed KPH | gust KPH | rain 1hr cm | rain 24hr cm | rain mn cm | humidity % | barometer mb |
| 20260502183354 | 11 | 235 | 0.0 | 3.2 | 0.00 | 0.00 | 0.00 | 42 | 1014.5 |
| 20260502182850 | 11 | 294 | 0.0 | 3.2 | 0.00 | 0.00 | 0.00 | 42 | 1014.8 |
| 20260502182346 | 11 | 187 | 4.8 | 9.7 | 0.00 | 0.00 | 0.00 | 40 | 1014.7 |
| 20260502181842 | 11 | 258 | 3.2 | 9.7 | 0.00 | 0.00 | 0.00 | 44 | 1014.7 |
| 20260502181341 | 12 | 230 | 3.2 | 3.2 | 0.00 | 0.00 | 0.00 | 42 | 1014.8 |
| 20260502180839 | 12 | 106 | 0.0 | 9.7 | 0.00 | 0.00 | 0.00 | 52 | 1014.8 |
| 20260502180336 | 12 | 228 | 3.2 | 11.3 | 0.00 | 0.00 | 0.00 | 41 | 1014.8 |
| 20260502170254 | 12 | 275 | 3.2 | 4.8 | 0.00 | 0.00 | 0.00 | 48 | 1015.3 |
| 20260502164242 | 11 | 45 | 0.0 | 3.2 | 0.00 | 0.00 | 0.00 | 46 | 1015.2 |
| 20260502163737 | 11 | 282 | 1.6 | 6.4 | 0.00 | 0.00 | 0.00 | 41 | 1015.4 |
| 20260502163234 | 11 | 256 | 3.2 | 6.4 | 0.00 | 0.00 | 0.00 | 40 | 1015.3 |
| 20260502162731 | 12 | 268 | 0.0 | 4.8 | 0.00 | 0.00 | 0.00 | 43 | 1015.5 |
| 20260502162228 | 11 | 221 | 1.6 | 4.8 | 0.00 | 0.00 | 0.00 | 46 | 1015.1 |
| 20260502161725 | 11 | 275 | 0.0 | 4.8 | 0.00 | 0.00 | 0.00 | 42 | 1015.4 |
| 20260502161222 | 12 | 88 | 1.6 | 6.4 | 0.00 | 0.00 | 0.00 | 40 | 1015.4 |
| 20260502160720 | 12 | 289 | 0.0 | 3.2 | 0.00 | 0.00 | 0.00 | 46 | 1015.6 |
| 20260502160219 | 12 | 289 | 1.6 | 4.8 | 0.00 | 0.00 | 0.00 | 43 | 1015.5 |
| 20260502152143 | 12 | 338 | 0.0 | 6.4 | 0.00 | 0.00 | 0.00 | 52 | 1015.8 |
| 20260502151640 | 12 | 57 | 0.0 | 3.2 | 0.00 | 0.00 | 0.00 | 48 | 1015.6 |
| 20260502151137 | 12 | 57 | 0.0 | 4.8 | 0.00 | 0.00 | 0.00 | 50 | 1015.9 |
| 20260502150635 | 11 | 67 | 1.6 | 3.2 | 0.00 | 0.00 | 0.00 | 49 | 1015.5 |
| 20260502150131 | 12 | 272 | 3.2 | 3.2 | 0.00 | 0.00 | 0.00 | 49 | 1016.0 |
| 20260502130519 | 5 | 286 | 0.0 | 0.0 | 0.00 | 0.00 | 0.00 | 93 | 1016.0 |
| 20260502123503 | 3 | 286 | 0.0 | 0.0 | 0.00 | 0.00 | 0.00 | 99 | 1015.6 |
| 20260502122959 | 3 | 287 | 0.0 | 0.0 | 0.00 | 0.00 | 0.00 | 99 | 1015.7 |
| 20260502122455 | 3 | 286 | 0.0 | 0.0 | 0.00 | 0.00 | 0.00 | 99 | 1015.9 |
| 20260502121953 | 3 | 286 | 0.0 | 0.0 | 0.00 | 0.00 | 0.00 | 99 | 1016.0 |
| 20260502121450 | 2 | 287 | 0.0 | 0.0 | 0.00 | 0.00 | 0.00 | 99 | 1016.1 |
| 20260502120948 | 2 | 286 | 0.0 | 0.0 | 0.00 | 0.00 | 0.00 | 99 | 1015.9 |
| 20260502120444 | 2 | 286 | 0.0 | 0.0 | 0.00 | 0.00 | 0.00 | 99 | 1016.1 |
| 20260502115438 | 2 | 286 | 0.0 | 0.0 | 0.00 | 0.00 | 0.00 | 99 | 1015.9 |
| 20260502114934 | 2 | 286 | 0.0 | 0.0 | 0.00 | 0.00 | 0.00 | 99 | 1016.1 |
| 20260502114431 | 2 | 286 | 0.0 | 0.0 | 0.00 | 0.00 | 0.00 | 99 | 1016.0 |
| 20260502113928 | 2 | 286 | 0.0 | 0.0 | 0.00 | 0.00 | 0.00 | 99 | 1015.8 |
| 20260502113426 | 2 | 286 | 0.0 | 0.0 | 0.00 | 0.00 | 0.00 | 99 | 1016.0 |
| 20260502112925 | 2 | 286 | 0.0 | 0.0 | 0.00 | 0.00 | 0.00 | 99 | 1015.9 |
| 20260502112422 | 1 | 286 | 0.0 | 0.0 | 0.00 | 0.00 | 0.00 | 99 | 1015.8 |
| 20260502111919 | 1 | 286 | 0.0 | 0.0 | 0.00 | 0.00 | 0.00 | 99 | 1015.7 |
| 20260502111416 | 1 | 286 | 0.0 | 0.0 | 0.00 | 0.00 | 0.00 | 99 | 1016.0 |
| 20260502110914 | 1 | 286 | 0.0 | 0.0 | 0.00 | 0.00 | 0.00 | 99 | 1015.9 |
| 20260502110411 | 1 | 286 | 0.0 | 0.0 | 0.00 | 0.00 | 0.00 | 99 | 1015.4 |
| 20260502105908 | 1 | 286 | 0.0 | 0.0 | 0.00 | 0.00 | 0.00 | 99 | 1015.5 |
| 20260502105405 | 1 | 286 | 0.0 | 0.0 | 0.00 | 0.00 | 0.00 | 99 | 1015.5 |
| 20260502104903 | 1 | 286 | 0.0 | 0.0 | 0.00 | 0.00 | 0.00 | 99 | 1015.6 |
| 20260502104400 | 1 | 286 | 0.0 | 0.0 | 0.00 | 0.00 | 0.00 | 99 | 1015.5 |
| 20260502103857 | 1 | 286 | 0.0 | 0.0 | 0.00 | 0.00 | 0.00 | 99 | 1015.7 |
| 20260502103355 | 1 | 286 | 0.0 | 0.0 | 0.00 | 0.00 | 0.00 | 99 | 1015.6 |
| 20260502102852 | 1 | 286 | 0.0 | 0.0 | 0.00 | 0.00 | 0.00 | 99 | 1015.7 |
| 20260502102348 | 1 | 286 | 0.0 | 0.0 | 0.00 | 0.00 | 0.00 | 99 | 1016.1 |
| 20260502101846 | 1 | 286 | 0.0 | 0.0 | 0.00 | 0.00 | 0.00 | 99 | 1015.9 |
| 20260502101344 | 1 | 286 | 0.0 | 0.0 | 0.00 | 0.00 | 0.00 | 99 | 1016.0 |
| 20260502100842 | 1 | 286 | 0.0 | 0.0 | 0.00 | 0.00 | 0.00 | 99 | 1015.9 |
| 20260502100341 | 1 | 286 | 0.0 | 0.0 | 0.00 | 0.00 | 0.00 | 99 | 1016.0 |
| 20260502091315 | 1 | 286 | 0.0 | 0.0 | 0.00 | 0.00 | 0.00 | 99 | 1016.0 |
| 20260502090812 | 1 | 286 | 0.0 | 0.0 | 0.00 | 0.00 | 0.00 | 99 | 1016.0 |
| 20260502090309 | 1 | 286 | 0.0 | 0.0 | 0.00 | 0.00 | 0.00 | 99 | 1016.2 |
| 20260502071204 | 2 | 286 | 0.0 | 0.0 | 0.00 | 0.00 | 0.00 | 98 | 1015.5 |
| 20260502070702 | 2 | 286 | 0.0 | 0.0 | 0.00 | 0.00 | 0.00 | 97 | 1015.4 |
| 20260502070200 | 2 | 286 | 0.0 | 0.0 | 0.00 | 0.00 | 0.00 | 97 | 1015.6 |
| 20260502065658 | 3 | 286 | 0.0 | 0.0 | 0.00 | 0.00 | 0.00 | 97 | 1015.7 |
| 20260502065155 | 3 | 286 | 0.0 | 0.0 | 0.00 | 0.00 | 0.00 | 97 | 1015.7 |
| 20260502064654 | 3 | 286 | 0.0 | 0.0 | 0.00 | 0.00 | 0.00 | 97 | 1015.7 |
| 20260502064151 | 3 | 286 | 0.0 | 0.0 | 0.00 | 0.00 | 0.00 | 96 | 1015.6 |
| 20260502063649 | 3 | 286 | 0.0 | 0.0 | 0.00 | 0.00 | 0.00 | 96 | 1015.8 |
| 20260502063146 | 3 | 286 | 0.0 | 0.0 | 0.00 | 0.00 | 0.00 | 96 | 1015.7 |
| 20260502062643 | 3 | 286 | 0.0 | 0.0 | 0.00 | 0.00 | 0.00 | 96 | 1015.9 |
| 20260502062140 | 3 | 286 | 0.0 | 0.0 | 0.00 | 0.00 | 0.00 | 96 | 1015.8 |
| 20260502061639 | 3 | 286 | 0.0 | 0.0 | 0.00 | 0.00 | 0.00 | 95 | 1016.1 |
| 20260502061136 | 3 | 286 | 0.0 | 0.0 | 0.00 | 0.00 | 0.00 | 95 | 1016.1 |
| 20260502060631 | 3 | 286 | 0.0 | 0.0 | 0.00 | 0.00 | 0.00 | 94 | 1016.0 |
| 20260502060127 | 3 | 286 | 0.0 | 0.0 | 0.00 | 0.00 | 0.00 | 94 | 1016.1 |
| 20260502055626 | 4 | 286 | 0.0 | 0.0 | 0.00 | 0.00 | 0.00 | 94 | 1015.9 |
| 20260502055123 | 4 | 286 | 0.0 | 0.0 | 0.00 | 0.00 | 0.00 | 93 | 1015.9 |
| 20260502054622 | 4 | 286 | 0.0 | 0.0 | 0.00 | 0.00 | 0.00 | 93 | 1016.3 |
| 20260502054119 | 4 | 286 | 0.0 | 0.0 | 0.00 | 0.00 | 0.00 | 92 | 1016.1 |
| 20260502053616 | 5 | 286 | 0.0 | 0.0 | 0.00 | 0.00 | 0.00 | 92 | 1016.1 |
| 20260502053113 | 5 | 286 | 0.0 | 0.0 | 0.00 | 0.00 | 0.00 | 92 | 1015.8 |
| 20260502052612 | 5 | 286 | 0.0 | 0.0 | 0.00 | 0.00 | 0.00 | 91 | 1016.4 |
| 20260502052109 | 5 | 286 | 0.0 | 0.0 | 0.00 | 0.00 | 0.00 | 91 | 1016.2 |
| 20260502051607 | 5 | 286 | 0.0 | 0.0 | 0.00 | 0.00 | 0.00 | 90 | 1016.2 |
| 20260502051105 | 5 | 286 | 0.0 | 0.0 | 0.00 | 0.00 | 0.00 | 89 | 1016.5 |
| 20260502050600 | 5 | 286 | 0.0 | 0.0 | 0.00 | 0.00 | 0.00 | 89 | 1016.1 |
| 20260502050057 | 5 | 286 | 0.0 | 0.0 | 0.00 | 0.00 | 0.00 | 88 | 1016.1 |
| 20260502045554 | 6 | 286 | 0.0 | 0.0 | 0.00 | 0.00 | 0.00 | 87 | 1016.0 |
| 20260502045052 | 6 | 286 | 0.0 | 0.0 | 0.00 | 0.00 | 0.00 | 86 | 1016.1 |
| 20260502044548 | 6 | 286 | 0.0 | 0.0 | 0.00 | 0.00 | 0.00 | 86 | 1016.3 |
| 20260502044045 | 6 | 286 | 0.0 | 0.0 | 0.00 | 0.00 | 0.00 | 85 | 1016.2 |
| 20260502043543 | 6 | 286 | 0.0 | 0.0 | 0.00 | 0.00 | 0.00 | 83 | 1016.1 |
| 20260502043039 | 7 | 286 | 0.0 | 0.0 | 0.00 | 0.00 | 0.00 | 83 | 1016.1 |
| 20260502042539 | 7 | 286 | 0.0 | 0.0 | 0.00 | 0.00 | 0.00 | 82 | 1016.2 |
| 20260502042037 | 7 | 286 | 0.0 | 0.0 | 0.00 | 0.00 | 0.00 | 81 | 1016.0 |
| 20260502041534 | 7 | 286 | 0.0 | 0.0 | 0.00 | 0.00 | 0.00 | 80 | 1016.2 |
| 20260502041031 | 7 | 286 | 0.0 | 0.0 | 0.00 | 0.00 | 0.00 | 80 | 1016.0 |
| 20260502040528 | 7 | 286 | 0.0 | 0.0 | 0.00 | 0.00 | 0.00 | 78 | 1016.3 |
| 20260502040025 | 7 | 286 | 0.0 | 0.0 | 0.00 | 0.00 | 0.00 | 78 | 1016.0 |
| 20260502035521 | 8 | 286 | 0.0 | 0.0 | 0.00 | 0.00 | 0.00 | 77 | 1016.1 |
| 20260502035018 | 8 | 286 | 0.0 | 0.0 | 0.00 | 0.00 | 0.00 | 76 | 1016.0 |
| 20260502034516 | 8 | 286 | 0.0 | 0.0 | 0.00 | 0.00 | 0.00 | 74 | 1016.1 |
| 20260502034015 | 8 | 286 | 0.0 | 0.0 | 0.00 | 0.00 | 0.00 | 72 | 1016.1 |
| 20260502033512 | 8 | 286 | 0.0 | 0.0 | 0.00 | 0.00 | 0.00 | 72 | 1015.8 |
| 20260502033009 | 8 | 286 | 0.0 | 0.0 | 0.00 | 0.00 | 0.00 | 73 | 1016.0 |
| 20260502032505 | 8 | 287 | 0.0 | 0.0 | 0.00 | 0.00 | 0.00 | 71 | 1016.3 |
| 20260502032002 | 8 | 287 | 0.0 | 0.0 | 0.00 | 0.00 | 0.00 | 72 | 1016.1 |
| 20260502031500 | 8 | 287 | 0.0 | 0.0 | 0.00 | 0.00 | 0.00 | 70 | 1016.3 |
| 20260502030958 | 8 | 287 | 0.0 | 0.0 | 0.00 | 0.00 | 0.00 | 68 | 1016.1 |
| 20260502030456 | 8 | 287 | 0.0 | 0.0 | 0.00 | 0.00 | 0.00 | 68 | 1016.0 |
| 20260502025954 | 9 | 287 | 0.0 | 1.6 | 0.00 | 0.00 | 0.00 | 68 | 1015.9 |
| 20260502025450 | 9 | 287 | 0.0 | 0.0 | 0.00 | 0.00 | 0.00 | 68 | 1016.0 |
| 20260502024948 | 9 | 287 | 0.0 | 1.6 | 0.00 | 0.00 | 0.00 | 66 | 1015.9 |
| 20260502024446 | 9 | 287 | 0.0 | 0.0 | 0.00 | 0.00 | 0.00 | 67 | 1015.8 |
| 20260502023944 | 9 | 287 | 0.0 | 1.6 | 0.00 | 0.00 | 0.00 | 68 | 1016.1 |
| 20260502023441 | 9 | 287 | 0.0 | 0.0 | 0.00 | 0.00 | 0.00 | 69 | 1016.0 |
| 20260502022939 | 9 | 287 | 0.0 | 0.0 | 0.00 | 0.00 | 0.00 | 69 | 1016.1 |
| 20260502022435 | 10 | 287 | 0.0 | 1.6 | 0.00 | 0.00 | 0.00 | 68 | 1016.0 |
| 20260502021932 | 10 | 287 | 0.0 | 0.0 | 0.00 | 0.00 | 0.00 | 66 | 1015.8 |
| 20260502021430 | 10 | 286 | 1.6 | 1.6 | 0.00 | 0.00 | 0.00 | 65 | 1015.6 |
| 20260502020927 | 10 | 348 | 0.0 | 1.6 | 0.00 | 0.00 | 0.00 | 66 | 1015.4 |
| 20260502020425 | 10 | 340 | 4.8 | 9.7 | 0.00 | 0.00 | 0.00 | 66 | 1015.5 |
| 20260502015921 | 10 | 262 | 0.0 | 0.0 | 0.00 | 0.00 | 0.00 | 72 | 1015.3 |
| 20260502015419 | 10 | 261 | 0.0 | 0.0 | 0.00 | 0.00 | 0.00 | 68 | 1015.2 |
| 20260502014915 | 10 | 261 | 0.0 | 0.0 | 0.00 | 0.00 | 0.00 | 72 | 1014.9 |
| 20260502014412 | 10 | 261 | 0.0 | 0.0 | 0.00 | 0.00 | 0.00 | 73 | 1014.8 |
| 20260502013908 | 10 | 261 | 0.0 | 0.0 | 0.00 | 0.00 | 0.00 | 73 | 1014.9 |
| 20260502013404 | 10 | 261 | 0.0 | 3.2 | 0.00 | 0.00 | 0.00 | 71 | 1015.0 |
| 20260502012901 | 10 | 261 | 3.2 | 6.4 | 0.00 | 0.00 | 0.00 | 72 | 1014.6 |
| 20260502012359 | 11 | 32 | 0.0 | 1.6 | 0.00 | 0.00 | 0.00 | 73 | 1014.6 |
| 20260502011856 | 10 | 304 | 0.0 | 1.6 | 0.00 | 0.00 | 0.00 | 75 | 1014.4 |
| 20260502011352 | 10 | 296 | 0.0 | 0.0 | 0.00 | 0.00 | 0.00 | 82 | 1014.2 |
| 20260502010849 | 10 | 296 | 0.0 | 3.2 | 0.00 | 0.00 | 0.00 | 76 | 1014.3 |
| 20260502010346 | 10 | 10 | 0.0 | 0.0 | 0.00 | 0.00 | 0.00 | 84 | 1014.1 |
| 20260502005842 | 10 | 10 | 0.0 | 0.0 | 0.00 | 0.00 | 0.00 | 83 | 1013.9 |
| 20260502005340 | 10 | 10 | 0.0 | 0.0 | 0.00 | 0.00 | 0.00 | 82 | 1013.9 |
| 20260502004837 | 10 | 10 | 0.0 | 0.0 | 0.00 | 0.00 | 0.00 | 82 | 1013.7 |
| 20260502004333 | 10 | 10 | 0.0 | 0.0 | 0.00 | 0.00 | 0.00 | 82 | 1013.6 |
| 20260502003831 | 10 | 10 | 0.0 | 0.0 | 0.00 | 0.00 | 0.00 | 81 | 1013.6 |
| 20260502003328 | 10 | 10 | 0.0 | 0.0 | 0.00 | 0.00 | 0.00 | 81 | 1013.6 |
| 20260502002824 | 10 | 10 | 0.0 | 0.0 | 0.00 | 0.00 | 0.00 | 80 | 1013.7 |
| 20260502002322 | 10 | 10 | 0.0 | 0.0 | 0.00 | 0.00 | 0.00 | 80 | 1013.6 |
| 20260502001819 | 11 | 10 | 0.0 | 0.0 | 0.00 | 0.00 | 0.00 | 78 | 1013.5 |
| 20260502001317 | 11 | 10 | 0.0 | 0.0 | 0.00 | 0.00 | 0.00 | 78 | 1013.3 |
| 20260502000814 | 11 | 10 | 0.0 | 0.0 | 0.00 | 0.00 | 0.00 | 76 | 1013.4 |
| 20260502000312 | 11 | 10 | 0.0 | 0.0 | 0.00 | 0.00 | 0.00 | 75 | 1013.0 |
| 20260501235808 | 11 | 10 | 0.0 | 0.0 | 0.00 | 0.00 | 0.00 | 75 | 1012.8 |
| 20260501235305 | 11 | 10 | 0.0 | 0.0 | 0.00 | 0.00 | 0.00 | 75 | 1012.6 |
| 20260501234759 | 11 | 10 | 0.0 | 0.0 | 0.00 | 0.00 | 0.00 | 75 | 1012.3 |
| 20260501234257 | 11 | 10 | 0.0 | 0.0 | 0.00 | 0.00 | 0.00 | 74 | 1012.3 |
| 20260501233755 | 11 | 10 | 0.0 | 0.0 | 0.00 | 0.00 | 0.00 | 73 | 1012.4 |
| 20260501233252 | 11 | 10 | 0.0 | 0.0 | 0.00 | 0.00 | 0.00 | 74 | 1012.2 |
| 20260501232747 | 11 | 10 | 0.0 | 0.0 | 0.00 | 0.00 | 0.00 | 72 | 1012.2 |
| 20260501232245 | 11 | 10 | 0.0 | 0.0 | 0.00 | 0.00 | 0.00 | 69 | 1012.3 |
| 20260501231742 | 11 | 10 | 0.0 | 0.0 | 0.00 | 0.00 | 0.00 | 70 | 1012.4 |
| 20260501231240 | 11 | 10 | 0.0 | 3.2 | 0.00 | 0.00 | 0.00 | 68 | 1012.4 |
| 20260501230738 | 12 | 43 | 0.0 | 9.7 | 0.00 | 0.00 | 0.00 | 67 | 1012.5 |
| 20260501230237 | 12 | 358 | 4.8 | 6.4 | 0.00 | 0.00 | 0.00 | 66 | 1012.5 |
| 20260501225734 | 12 | 359 | 0.0 | 1.6 | 0.00 | 0.00 | 0.00 | 66 | 1012.5 |
| 20260501225231 | 12 | 327 | 0.0 | 3.2 | 0.00 | 0.00 | 0.00 | 65 | 1012.4 |
| 20260501224727 | 12 | 313 | 1.6 | 9.7 | 0.00 | 0.00 | 0.00 | 65 | 1012.3 |
| 20260501224225 | 12 | 265 | 1.6 | 4.8 | 0.00 | 0.00 | 0.00 | 67 | 1012.2 |
| 20260501223721 | 12 | 352 | 0.0 | 4.8 | 0.00 | 0.00 | 0.00 | 62 | 1012.2 |
| 20260501223218 | 12 | 347 | 3.2 | 9.7 | 0.00 | 0.00 | 0.00 | 63 | 1012.1 |
| 20260501222714 | 13 | 288 | 3.2 | 4.8 | 0.00 | 0.00 | 0.00 | 64 | 1012.3 |
| 20260501222211 | 13 | 330 | 3.2 | 11.3 | 0.00 | 0.00 | 0.00 | 62 | 1012.0 |
| 20260501221707 | 13 | 258 | 1.6 | 4.8 | 0.00 | 0.00 | 0.00 | 63 | 1012.0 |
| 20260501221205 | 13 | 295 | 1.6 | 6.4 | 0.00 | 0.00 | 0.00 | 64 | 1011.7 |
| 20260501220702 | 13 | 300 | 1.6 | 3.2 | 0.00 | 0.00 | 0.00 | 63 | 1011.9 |
| 20260501220159 | 13 | 280 | 1.6 | 3.2 | 0.00 | 0.00 | 0.00 | 62 | 1011.7 |
| 20260501215656 | 14 | 274 | 0.0 | 4.8 | 0.00 | 0.00 | 0.00 | 65 | 1012.0 |
| 20260501215151 | 13 | 233 | 3.2 | 3.2 | 0.00 | 0.00 | 0.00 | 65 | 1011.7 |
| 20260501214647 | 13 | 215 | 3.2 | 9.7 | 0.00 | 0.00 | 0.00 | 65 | 1011.8 |
| 20260501214142 | 13 | 235 | 3.2 | 6.4 | 0.00 | 0.00 | 0.00 | 65 | 1011.6 |
| 20260501213640 | 13 | 232 | 1.6 | 4.8 | 0.00 | 0.00 | 0.00 | 65 | 1011.7 |
| 20260501213135 | 14 | 240 | 3.2 | 6.4 | 0.00 | 0.00 | 0.00 | 66 | 1011.6 |
| 20260501212632 | 14 | 6 | 0.0 | 4.8 | 0.00 | 0.00 | 0.00 | 69 | 1011.6 |
| 20260501212129 | 14 | 263 | 3.2 | 4.8 | 0.00 | 0.00 | 0.00 | 66 | 1011.5 |
| 20260501211625 | 14 | 256 | 1.6 | 6.4 | 0.00 | 0.00 | 0.00 | 66 | 1011.3 |
| 20260501211124 | 14 | 353 | 0.0 | 1.6 | 0.00 | 0.00 | 0.00 | 67 | 1011.3 |
| 20260501210620 | 14 | 238 | 1.6 | 3.2 | 0.00 | 0.00 | 0.00 | 64 | 1011.2 |
| 20260501210116 | 14 | 32 | 3.2 | 6.4 | 0.00 | 0.00 | 0.00 | 63 | 1011.3 |
| 20260501205613 | 15 | 293 | 1.6 | 3.2 | 0.00 | 0.00 | 0.00 | 62 | 1011.3 |
| 20260501205111 | 15 | 245 | 0.0 | 4.8 | 0.00 | 0.00 | 0.00 | 64 | 1011.0 |
| 20260501204607 | 15 | 248 | 3.2 | 3.2 | 0.00 | 0.00 | 0.00 | 58 | 1011.0 |
| 20260501204103 | 15 | 268 | 1.6 | 4.8 | 0.00 | 0.00 | 0.00 | 57 | 1011.0 |
| 20260501203600 | 15 | 253 | 1.6 | 9.7 | 0.00 | 0.00 | 0.00 | 56 | 1010.8 |
| 20260501203057 | 15 | 328 | 1.6 | 12.9 | 0.00 | 0.00 | 0.00 | 55 | 1010.5 |
| 20260501202554 | 16 | 262 | 0.0 | 3.2 | 0.00 | 0.00 | 0.00 | 53 | 1010.5 |
| 20260501202051 | 16 | 329 | 3.2 | 4.8 | 0.00 | 0.00 | 0.00 | 52 | 1010.3 |
| 20260501201548 | 16 | 353 | 4.8 | 4.8 | 0.00 | 0.00 | 0.00 | 48 | 1010.6 |
| 20260501201044 | 16 | 357 | 0.0 | 1.6 | 0.00 | 0.00 | 0.00 | 52 | 1010.3 |
| 20260501200541 | 16 | 357 | 1.6 | 6.4 | 0.00 | 0.00 | 0.00 | 50 | 1010.3 |
| 20260501200039 | 16 | 270 | 1.6 | 4.8 | 0.00 | 0.00 | 0.00 | 46 | 1010.2 |
| 20260501195536 | 17 | 243 | 1.6 | 4.8 | 0.00 | 0.00 | 0.00 | 45 | 1010.1 |
| 20260501195031 | 17 | 13 | 3.2 | 9.7 | 0.00 | 0.00 | 0.00 | 44 | 1010.1 |
| 20260501194527 | 17 | 272 | 1.6 | 3.2 | 0.00 | 0.00 | 0.00 | 47 | 1010.2 |
| 20260501194023 | 17 | 254 | 3.2 | 16.1 | 0.00 | 0.00 | 0.00 | 42 | 1010.4 |
| 20260501193521 | 17 | 294 | 3.2 | 4.8 | 0.00 | 0.00 | 0.00 | 41 | 1010.2 |
| 20260501193019 | 17 | 266 | 1.6 | 3.2 | 0.00 | 0.00 | 0.00 | 42 | 1010.1 |
| 20260501192516 | 17 | 288 | 1.6 | 4.8 | 0.00 | 0.00 | 0.00 | 40 | 1010.2 |
| 20260501192014 | 18 | 268 | 0.0 | 3.2 | 0.00 | 0.00 | 0.00 | 41 | 1010.2 |
| 20260501191510 | 18 | 292 | 1.6 | 6.4 | 0.00 | 0.00 | 0.00 | 39 | 1010.1 |
| 20260501191008 | 18 | 249 | 6.4 | 6.4 | 0.00 | 0.00 | 0.00 | 38 | 1010.2 |
| 20260501190503 | 18 | 63 | 0.0 | 1.6 | 0.00 | 0.00 | 0.00 | 38 | 1010.1 |
| 20260501185958 | 18 | 255 | 3.2 | 9.7 | 0.00 | 0.00 | 0.00 | 41 | 1010.2 |
| 20260501185454 | 19 | 62 | 0.0 | 3.2 | 0.00 | 0.00 | 0.00 | 37 | 1010.2 |
| 20260501184951 | 18 | 137 | 0.0 | 3.2 | 0.00 | 0.00 | 0.00 | 42 | 1010.2 |
| 20260501184447 | 18 | 233 | 1.6 | 6.4 | 0.00 | 0.00 | 0.00 | 36 | 1010.1 |
| 20260501183942 | 18 | 235 | 3.2 | 4.8 | 0.00 | 0.00 | 0.00 | 37 | 1010.2 |